Wetbulb
61.39 61.16 60.94 56.86 47.80 48.12 44.90 46.93 50.96 48.82 49.21 52.25 52.93 50.88 48.67 50.03 48.92 51.85 68.66 70.60 74.01 74.45 73.08 72.23 72.55 73.32 73.96 74.17 74.15 73.99 74.23 74.18 74.28 74.15 73.97 74.05 74.10 74.38 74.52 74.34 74.40 74.85 74.82 74.01 73.91 74.06 73.42 74.34 73.56
59.73 60.35 57.81 53.77 47.00 43.96 46.11 50.67 48.10 49.25 50.24 51.60 51.45 51.07 50.02 49.46 58.68 60.85 65.07 70.52 72.12 74.33 73.45 72.45 72.19 72.83 73.63 73.77 73.87 73.94 74.34 74.46 74.07 74.06 74.15 74.15 74.08 74.38 74.43 74.14 73.85 74.35 74.74 74.09 73.38 73.32 73.15 73.53 72.68
58.13 59.73 53.50 51.17 47.91 44.40 46.19 49.64 49.19 49.89 51.56 52.25 51.42 53.20 52.23 51.07 59.84 62.22 66.95 71.96 72.64 73.22 74.39 73.53 71.64 72.11 72.99 73.35 73.70 73.93 73.99 73.76 73.75 73.84 74.23 74.21 74.23 74.33 74.35 73.58 73.46 74.23 74.64 74.14 73.50 73.20 72.69 72.16 71.60
57.85 56.60 54.09 48.28 46.62 49.67 50.55 50.21 51.00 51.40 53.21 53.74 53.24 51.40 55.51 59.52 60.44 65.19 68.31 72.44 72.82 73.82 74.84 70.33 70.75 71.59 72.62 73.26 73.71 73.82 73.47 72.97 73.05 73.45 73.95 74.14 74.32 74.23 73.84 73.09 73.35 74.20 74.31 74.12 74.02 72.91 71.98 71.08 70.69
57.19 54.58 48.84 47.64 48.27 50.95 53.07 54.24 53.17 52.03 52.97 53.38 54.08 51.82 54.49 60.72 64.48 65.63 69.64 71.95 72.85 74.15 73.10 71.81 69.96 71.07 72.25 73.25 73.51 73.29 72.91 72.57 72.58 73.27 73.63 73.87 74.13 74.09 73.21 72.56 72.96 73.48 73.91 73.78 73.49 72.12 71.01 70.53 70.46
51.61 52.95 45.93 44.95 48.02 51.58 53.85 54.36 53.41 52.97 53.42 54.18 53.74 53.69 55.44 62.04 61.48 64.11 70.61 71.75 74.60 74.96 74.85 72.03 70.90 71.05 71.20 72.11 72.39 71.95 71.87 72.13 72.19 72.70 73.13 73.62 73.46 73.06 72.63 72.43 72.70 72.94 73.01 72.65 72.02 70.95 70.33 70.19 70.27
49.18 47.93 45.68 46.80 47.27 48.73 51.57 54.93 52.57 52.38 52.31 52.72 54.91 51.71 56.59 58.25 60.81 62.53 64.61 73.36 75.17 75.68 75.51 73.85 72.28 71.33 70.41 70.19 70.24 70.27 70.81 71.44 71.70 71.91 72.11 72.49 71.95 71.72 71.99 72.09 72.27 72.51 71.74 71.68 71.15 70.05 69.65 69.57 69.64
51.69 49.24 45.76 46.25 45.17 46.35 51.63 52.43 53.67 52.07 51.03 56.12 55.83 51.04 53.28 57.16 60.79 59.99 60.66 62.70 74.18 75.38 75.10 74.02 72.84 72.11 71.71 71.62 69.26 69.39 69.95 70.20 70.59 71.05 71.17 70.93 70.88 71.05 71.13 71.21 71.61 71.86 71.22 71.01 70.46 69.50 69.08 69.20 68.58
51.92 44.21 42.19 44.92 45.56 47.26 51.72 50.03 53.14 53.48 51.20 51.78 53.21 54.16 56.21 57.46 58.65 57.02 57.49 59.05 62.90 73.24 74.28 72.92 72.01 72.45 72.29 71.69 70.90 69.42 69.95 69.86 69.96 70.83 70.48 69.38 72.18 71.67 71.40 70.55 69.99 70.93 70.52 70.24 69.50 68.83 68.60 68.00 67.86
46.29 43.31 43.58 47.10 47.21 46.81 49.45 49.25 48.56 47.13 47.41 47.87 49.79 53.31 52.56 53.27 53.34 52.10 51.87 53.55 58.93 62.32 70.55 73.57 72.71 71.66 72.22 71.74 71.48 70.72 70.83 70.96 71.43 71.88 71.57 72.00 71.59 71.54 71.26 70.26 69.29 70.23 69.83 69.37 68.81 68.41 67.89 67.03 67.62
45.22 41.84 45.66 46.26 47.17 46.55 45.31 45.56 46.56 44.11 42.87 45.96 46.18 48.16 49.39 50.49 50.37 50.77 52.13 53.87 55.76 59.01 60.92 72.97 73.31 72.60 71.88 71.79 72.05 70.53 70.68 70.08 70.53 71.07 71.74 71.74 71.13 71.05 69.92 70.38 70.09 70.43 69.24 69.10 68.03 67.64 67.96 67.55 67.32
42.14 44.64 44.79 44.83 45.47 44.87 43.92 45.46 43.68 44.27 45.01 47.79 47.73 48.48 48.58 48.59 50.11 50.47 51.47 52.02 53.01 55.79 59.16 59.88 73.35 72.22 72.41 71.79 72.36 71.88 70.74 70.47 70.31 70.80 71.74 70.87 70.88 70.89 69.92 70.58 70.50 70.57 69.91 69.60 68.07 67.84 67.35 67.77 67.90
43.66 44.52 45.74 46.54 46.30 45.39 45.55 43.79 43.93 44.47 47.91 48.39 48.36 48.52 48.39 48.33 48.91 50.21 50.74 51.23 51.91 52.66 55.43 60.30 65.58 72.15 71.62 71.87 72.37 72.04 70.99 71.07 70.89 70.97 71.44 71.71 70.38 70.34 70.46 70.22 70.46 69.87 69.89 68.82 68.25 67.88 67.56 67.24 67.58
45.16 44.61 44.55 45.26 44.86 45.19 43.83 43.78 44.17 45.05 47.77 47.43 47.40 47.11 47.95 48.49 49.13 49.94 50.68 50.70 52.66 53.34 53.91 56.27 59.83 66.40 71.64 70.65 71.54 70.99 71.74 71.67 71.22 71.06 71.22 71.75 70.81 70.38 70.56 70.31 69.90 69.53 69.58 69.16 68.79 67.97 67.60 67.32 66.91
45.62 41.83 43.15 44.15 45.15 43.52 44.91 41.10 42.49 46.94 47.30 46.21 46.66 47.31 47.87 48.65 49.58 50.04 51.00 51.66 52.11 52.96 53.46 54.84 56.72 61.05 71.41 70.77 70.37 71.00 70.12 70.22 70.85 70.81 71.85 71.42 71.28 70.94 70.57 70.24 69.77 69.70 69.51 69.25 68.90 69.00 67.29 67.12 67.51
41.87 42.36 38.54 43.92 44.31 44.66 43.64 37.65 44.46 46.82 46.13 45.16 45.71 46.71 47.95 49.47 50.59 52.17 52.99 53.12 53.58 54.29 54.95 55.84 56.61 58.44 62.08 70.83 69.99 70.16 70.55 70.14 70.60 70.40 70.49 71.17 71.35 71.13 70.58 69.95 69.21 69.85 69.90 69.01 68.06 66.99 66.05 66.03 65.74
42.49 37.67 40.40 41.82 45.48 43.78 42.49 39.24 44.01 46.56 45.56 44.65 46.32 48.63 48.97 49.23 50.00 50.20 50.32 50.60 51.36 52.61 53.96 55.45 57.54 58.17 60.10 60.78 68.31 69.65 69.73 70.35 69.86 70.72 70.20 70.35 70.14 70.93 70.63 69.21 69.82 69.72 69.17 68.86 68.03 67.22 66.44 65.32 65.25
37.60 37.87 38.87 38.34 41.77 42.51 40.77 40.30 43.61 45.21 44.91 46.74 46.85 46.41 46.10 45.98 46.17 47.58 47.62 48.54 49.37 50.30 52.41 52.91 54.87 57.18 57.83 58.35 60.08 68.22 69.04 69.60 70.00 69.27 69.49 70.19 69.65 69.24 69.96 69.58 69.08 69.75 68.65 67.97 67.82 66.99 67.01 65.77 64.77
39.63 37.68 36.95 39.78 42.96 41.36 40.19 40.13 41.98 44.26 46.45 44.65 44.27 43.71 43.01 43.23 45.08 45.65 45.44 45.52 46.64 47.57 48.04 50.23 51.83 52.91 54.05 55.21 56.77 61.12 65.84 67.21 67.92 68.62 69.05 69.89 69.19 68.87 68.77 69.56 68.40 67.81 68.02 67.71 67.47 66.70 64.80 64.11 65.03
39.34 37.49 37.68 41.04 43.15 41.69 40.16 39.33 42.25 45.15 43.93 42.83 41.61 40.93 40.78 40.28 40.64 41.78 42.38 42.46 43.19 44.04 44.96 46.59 48.40 49.85 50.57 53.07 56.74 59.11 62.46 66.76 67.63 68.64 68.48 68.86 69.92 68.73 68.41 69.12 67.87 67.41 66.56 67.07 66.30 65.94 64.62 64.57 65.30
39.43 38.33 38.52 37.93 40.31 41.26 39.82 38.05 40.09 43.50 42.78 42.35 41.38 40.64 39.81 37.66 37.47 38.69 39.23 38.89 39.51 40.17 42.31 44.00 45.33 46.67 48.59 51.00 54.83 57.18 60.07 64.48 66.20 67.12 67.16 68.06 69.34 69.37 68.53 68.31 67.99 66.72 66.35 65.30 65.81 65.62 64.65 62.48 64.11
36.42 41.80 39.79 38.52 36.94 32.64 40.39 30.25 38.47 41.98 39.52 38.96 38.25 37.93 36.80 36.27 37.04 37.30 37.27 36.33 36.79 38.44 40.54 41.66 43.56 45.22 47.83 50.34 52.44 53.74 55.02 57.68 64.52 66.06 67.09 67.44 68.01 68.86 68.65 67.65 67.33 67.43 66.08 65.15 65.29 65.93 64.58 63.64 61.78
38.47 41.93 39.79 39.09 36.50 36.12 37.02 33.90 36.73 39.97 34.53 34.81 35.79 36.18 35.54 35.55 35.43 35.19 35.56 35.84 35.87 37.51 37.57 39.91 41.68 44.73 46.54 47.94 51.11 53.03 54.86 60.02 64.36 66.12 66.20 66.81 66.75 67.50 68.17 66.82 66.48 67.21 65.91 65.50 66.18 65.97 64.79 64.47 62.91
42.80 40.13 40.72 40.78 38.16 30.72 37.24 35.48 31.30 30.90 31.02 33.10 34.45 34.99 34.44 34.22 34.42 34.36 35.30 35.45 34.62 36.42 36.60 37.46 39.68 43.50 44.41 45.68 50.29 51.98 52.94 58.31 62.66 61.19 64.42 65.54 66.48 66.90 67.54 66.75 66.43 66.60 66.75 66.26 65.84 66.19 65.60 63.95 63.93
41.25 37.93 31.84 30.65 30.49 29.06 38.50 35.26 30.51 32.94 33.79 33.57 32.23 33.26 33.60 33.33 33.32 33.23 33.22 33.16 33.50 33.50 34.63 36.31 37.05 41.77 43.68 44.66 48.58 50.29 51.70 56.01 56.73 58.27 57.85 57.31 58.30 61.58 63.34 66.42 66.56 66.53 67.14 67.52 67.12 66.28 65.40 64.74 63.56
40.01 38.78 31.57 24.44 26.79 30.39 37.87 31.33 28.85 35.20 35.40 35.37 34.72 34.15 33.13 31.93 33.08 32.61 33.07 32.55 32.81 33.42 33.84 34.63 35.37 39.56 42.77 43.63 46.21 48.20 49.21 50.66 51.26 51.85 52.61 52.59 56.85 57.18 57.67 59.15 65.09 65.85 65.83 66.30 66.63 66.04 65.74 64.88 63.90
39.25 35.49 40.93 34.01 34.68 30.04 32.56 31.20 36.26 36.50 33.71 33.09 31.72 31.60 30.36 31.21 31.69 31.96 32.64 32.61 32.50 32.91 33.39 33.67 34.26 34.45 41.80 43.80 44.65 46.12 46.37 46.21 46.81 48.62 50.30 50.32 49.13 52.14 53.58 54.74 54.32 59.85 65.12 65.04 64.45 63.65 64.45 64.92 64.83
40.41 42.92 33.56 34.91 24.84 24.81 32.00 30.71 28.18 29.79 29.56 31.25 30.20 29.56 29.93 31.80 31.26 31.55 31.71 32.10 32.58 32.55 33.46 33.67 33.75 33.07 39.61 41.50 42.87 43.76 43.10 43.55 44.35 44.01 44.12 45.43 45.52 46.13 46.29 48.15 48.23 48.97 50.98 57.41 63.65 63.60 64.22 63.99 64.61
38.55 36.34 37.27 36.45 34.56 27.21 26.04 26.98 31.69 28.99 30.30 29.22 29.69 30.21 30.16 30.99 30.62 30.71 30.92 32.11 31.86 32.26 33.03 32.92 33.04 32.38 35.33 41.25 42.38 41.48 41.39 41.60 42.21 42.02 41.47 42.20 41.97 42.01 42.17 42.75 42.41 43.05 43.37 43.23 45.96 48.64 58.46 62.42 63.37
42.42 38.97 38.51 31.31 30.31 34.12 32.77 26.80 33.50 32.46 31.68 30.80 29.64 29.84 30.73 31.09 31.06 30.58 30.88 31.29 31.48 31.58 32.12 32.24 32.89 33.82 33.25 40.43 40.54 40.28 39.60 40.55 40.46 40.51 40.24 40.76 40.17 40.44 39.80 39.57 39.47 38.93 39.33 40.49 40.95 42.72 45.23 48.55 52.72
MSLP
1011.56 1010.36 1009.64 1008.44 1007.72 1005.40 1003.15 1001.00 999.65 999.94 1000.60 1001.55 1002.04 1002.46 1002.83 1002.65 1002.43 1003.00 1004.32 1004.55 1004.81 1005.73 1006.32 1006.89 1007.33 1007.96 1008.17 1008.69 1009.17 1009.35 1010.05 1010.45 1010.91 1011.26 1011.68 1012.06 1012.35 1012.57 1012.79 1013.15 1013.47 1013.71 1013.88 1014.06 1014.24 1014.42 1014.63 1014.66 1014.76
1011.43 1009.94 1008.71 1007.71 1006.28 1004.09 1001.65 999.63 999.84 1000.83 1001.81 1002.43 1002.60 1002.73 1002.77 1002.62 1002.74 1002.86 1003.86 1004.51 1004.77 1005.35 1006.28 1006.85 1007.71 1008.18 1008.45 1008.74 1009.08 1009.47 1009.93 1010.55 1011.03 1011.39 1011.70 1012.11 1012.52 1012.80 1013.03 1013.27 1013.58 1013.86 1014.08 1014.27 1014.43 1014.52 1014.76 1014.91 1014.99
1011.54 1009.67 1008.63 1006.85 1005.38 1003.68 1001.46 1000.69 1000.99 1001.72 1002.03 1002.40 1002.91 1002.85 1002.82 1003.05 1003.79 1004.34 1004.79 1004.87 1004.97 1004.84 1005.94 1006.76 1007.82 1008.42 1008.92 1008.96 1009.29 1009.57 1009.88 1010.36 1010.98 1011.41 1011.83 1012.19 1012.46 1012.85 1013.19 1013.54 1013.77 1013.97 1014.16 1014.47 1014.57 1014.80 1014.85 1015.15 1015.21
1010.00 1009.02 1008.51 1006.65 1004.72 1002.88 1001.56 1001.14 1001.57 1001.81 1002.26 1002.86 1003.32 1003.34 1003.45 1003.86 1004.44 1005.25 1005.45 1005.49 1005.39 1004.70 1005.44 1007.33 1008.23 1008.54 1009.18 1009.44 1009.72 1009.87 1010.11 1010.53 1010.90 1011.40 1011.73 1012.16 1012.57 1012.81 1013.23 1013.55 1013.88 1014.07 1014.27 1014.55 1014.72 1015.09 1015.17 1015.28 1015.53
1009.68 1008.80 1007.40 1005.90 1004.42 1003.22 1001.96 1001.07 1001.41 1002.24 1002.68 1003.07 1003.44 1003.69 1003.84 1004.44 1005.14 1005.59 1006.06 1006.30 1006.08 1006.04 1006.64 1007.43 1008.19 1008.88 1009.45 1009.74 1009.94 1010.19 1010.34 1010.59 1010.93 1011.35 1011.72 1012.08 1012.58 1012.87 1013.23 1013.59 1013.81 1014.09 1014.29 1014.67 1014.99 1015.29 1015.41 1015.50 1015.69
1009.07 1008.22 1007.06 1005.43 1003.76 1002.27 1001.35 1001.73 1002.29 1002.84 1003.48 1003.51 1003.60 1003.71 1004.27 1004.85 1005.44 1005.71 1006.15 1006.69 1006.70 1006.87 1007.23 1008.19 1008.73 1008.83 1009.38 1009.73 1009.90 1010.24 1010.59 1010.77 1011.01 1011.35 1011.72 1012.03 1012.50 1012.87 1013.23 1013.62 1013.94 1014.10 1014.40 1014.79 1015.13 1015.44 1015.64 1015.72 1015.82
1009.06 1008.02 1006.89 1005.60 1004.25 1002.91 1001.84 1002.11 1002.67 1003.41 1004.04 1004.42 1004.98 1004.79 1004.74 1005.36 1005.91 1006.09 1006.11 1006.62 1007.01 1007.11 1007.59 1008.26 1008.84 1009.22 1009.60 1009.81 1010.04 1010.39 1010.72 1010.91 1011.08 1011.34 1011.69 1012.10 1012.48 1012.91 1013.25 1013.64 1013.96 1014.30 1014.50 1014.78 1015.13 1015.44 1015.67 1015.85 1015.98
1008.73 1008.27 1007.29 1006.12 1004.92 1003.79 1002.81 1002.91 1003.81 1004.71 1004.96 1005.28 1005.37 1005.23 1005.26 1005.68 1006.16 1006.41 1006.59 1006.73 1007.05 1007.24 1007.53 1008.23 1008.65 1009.22 1009.67 1009.94 1010.13 1010.53 1010.78 1011.06 1011.26 1011.38 1011.66 1011.94 1012.39 1012.89 1013.26 1013.56 1013.96 1014.27 1014.59 1014.87 1015.12 1015.36 1015.61 1015.79 1015.91
1009.19 1008.73 1007.48 1006.07 1005.11 1005.03 1004.85 1004.88 1004.85 1005.66 1006.04 1006.11 1006.05 1005.75 1005.94 1006.11 1006.49 1006.96 1007.34 1007.31 1006.87 1007.08 1007.30 1007.95 1008.63 1008.96 1009.30 1009.65 1009.89 1010.39 1010.73 1010.98 1011.22 1011.50 1011.81 1012.24 1012.38 1012.70 1013.04 1013.46 1013.65 1014.15 1014.54 1014.92 1015.19 1015.38 1015.59 1015.72 1015.98
1009.23 1008.44 1007.39 1006.33 1006.61 1006.67 1006.65 1006.98 1006.96 1007.09 1007.01 1006.85 1006.52 1006.22 1006.71 1007.06 1007.15 1007.52 1007.86 1007.59 1007.18 1006.88 1006.90 1007.36 1007.88 1008.75 1008.91 1009.06 1009.31 1010.02 1010.56 1010.81 1011.10 1011.27 1011.67 1011.82 1012.00 1012.29 1012.56 1012.95 1013.50 1013.89 1014.38 1014.82 1015.17 1015.43 1015.59 1015.69 1015.68
1008.94 1008.53 1008.02 1007.20 1007.39 1007.79 1007.85 1007.92 1008.22 1008.07 1007.88 1007.72 1007.60 1007.58 1007.59 1007.62 1007.98 1008.09 1007.91 1007.64 1007.30 1006.98 1006.77 1006.88 1007.35 1007.75 1008.62 1008.67 1008.75 1009.35 1009.71 1010.12 1010.50 1010.71 1011.09 1011.57 1011.66 1011.81 1012.09 1012.52 1013.11 1013.77 1014.21 1014.61 1015.10 1015.39 1015.47 1015.28 1015.05
1008.83 1008.80 1008.47 1008.01 1008.32 1008.56 1008.84 1009.03 1008.90 1008.83 1008.27 1008.30 1008.26 1008.35 1008.25 1008.29 1008.46 1008.54 1008.39 1008.34 1008.16 1007.73 1007.19 1006.76 1007.18 1007.16 1007.62 1008.00 1007.94 1008.48 1008.84 1009.26 1009.65 1009.96 1010.40 1010.95 1011.19 1011.40 1011.54 1011.94 1012.47 1013.00 1013.49 1013.90 1014.35 1014.71 1014.84 1014.80 1014.76
1008.82 1008.65 1008.43 1008.06 1008.53 1008.78 1008.91 1008.84 1008.66 1008.28 1008.15 1008.10 1008.19 1008.48 1008.71 1008.95 1009.13 1009.11 1009.11 1009.03 1008.84 1008.38 1007.96 1007.43 1007.17 1007.27 1007.18 1007.25 1007.30 1007.44 1008.01 1008.32 1008.68 1009.27 1009.69 1010.09 1010.63 1010.99 1011.08 1011.32 1011.73 1012.15 1012.65 1013.04 1013.56 1013.79 1014.17 1014.37 1014.31
1009.14 1008.98 1008.87 1008.62 1008.42 1008.45 1008.43 1008.54 1008.66 1008.10 1008.03 1008.09 1008.45 1008.84 1008.94 1009.02 1009.12 1009.23 1009.28 1009.14 1008.97 1008.75 1008.39 1007.86 1007.36 1007.05 1006.96 1007.44 1007.35 1007.44 1007.32 1007.47 1007.88 1008.17 1008.73 1009.32 1009.78 1010.26 1010.87 1010.97 1011.19 1011.44 1011.65 1012.18 1012.71 1013.14 1013.64 1013.88 1013.91
1009.67 1009.39 1008.70 1007.90 1007.67 1008.09 1008.33 1008.54 1007.66 1007.79 1008.18 1008.61 1008.55 1008.66 1008.82 1009.00 1009.21 1009.37 1009.47 1009.39 1009.15 1008.73 1008.47 1008.27 1007.83 1006.99 1006.72 1006.63 1007.08 1006.90 1007.44 1006.85 1007.26 1007.52 1007.76 1008.41 1008.83 1009.29 1010.01 1010.47 1010.80 1011.07 1011.25 1011.42 1012.02 1012.37 1013.07 1013.53 1013.80
1009.73 1009.30 1008.20 1006.83 1007.36 1007.47 1008.01 1007.93 1007.38 1007.63 1007.87 1008.27 1008.68 1008.69 1008.82 1009.19 1009.65 1010.86 1011.07 1011.01 1010.70 1010.26 1009.54 1008.47 1008.06 1007.41 1007.02 1006.38 1006.16 1006.62 1006.37 1006.58 1006.56 1007.13 1007.44 1007.94 1008.34 1008.56 1009.47 1010.02 1010.38 1010.64 1011.05 1011.43 1011.84 1012.26 1012.63 1013.18 1013.51
1008.14 1008.00 1007.05 1006.33 1006.33 1006.62 1007.40 1007.52 1007.64 1007.69 1008.05 1008.39 1008.62 1009.67 1010.52 1011.19 1011.51 1012.30 1012.90 1012.89 1012.46 1011.70 1010.83 1009.80 1008.95 1008.56 1008.02 1007.43 1006.68 1005.68 1005.99 1005.95 1006.23 1006.65 1007.02 1007.29 1007.94 1008.40 1008.93 1009.42 1009.86 1010.17 1010.88 1011.32 1011.89 1012.28 1012.45 1012.69 1013.02
1007.91 1007.79 1007.54 1007.05 1006.92 1007.02 1007.35 1007.43 1007.68 1007.91 1008.11 1009.15 1010.32 1011.53 1012.53 1013.16 1013.66 1013.92 1014.06 1014.30 1013.88 1013.10 1012.05 1011.37 1010.40 1008.89 1008.46 1007.91 1007.26 1005.96 1005.23 1005.51 1005.66 1005.81 1006.16 1006.50 1007.50 1008.06 1008.65 1008.82 1009.37 1009.95 1010.33 1010.93 1011.35 1012.05 1012.43 1012.49 1012.61
1009.15 1008.72 1008.17 1007.66 1007.25 1007.44 1007.68 1007.64 1007.78 1008.06 1008.87 1010.68 1012.24 1013.67 1014.59 1014.98 1015.33 1015.54 1015.71 1015.42 1014.83 1014.30 1013.50 1012.34 1011.28 1010.41 1009.49 1008.72 1007.91 1007.05 1005.75 1005.42 1005.36 1005.09 1005.48 1005.86 1006.46 1007.32 1008.27 1008.54 1009.14 1009.81 1010.31 1010.51 1011.09 1011.65 1012.42 1012.70 1012.65
1009.47 1009.01 1008.48 1007.80 1007.42 1007.69 1007.76 1007.86 1007.81 1008.84 1010.80 1012.75 1014.39 1015.49 1016.05 1016.64 1016.92 1016.96 1016.90 1016.74 1016.17 1015.41 1014.68 1013.61 1012.30 1011.50 1010.53 1009.71 1008.41 1007.69 1006.52 1004.81 1004.60 1004.46 1004.63 1004.94 1005.72 1006.82 1007.47 1008.03 1008.50 1009.03 1009.90 1010.38 1010.65 1011.44 1012.19 1012.64 1012.82
1009.23 1008.86 1008.66 1008.57 1008.54 1008.40 1007.89 1007.71 1008.09 1010.37 1012.44 1014.21 1015.90 1017.04 1017.79 1018.45 1018.26 1017.94 1017.71 1017.61 1017.14 1016.30 1015.53 1014.51 1013.35 1012.28 1011.18 1010.02 1008.76 1007.83 1006.76 1005.20 1003.94 1003.68 1003.73 1004.19 1004.61 1005.47 1006.32 1007.03 1007.51 1008.18 1009.19 1009.87 1010.51 1011.07 1011.54 1012.08 1012.40
1009.10 1009.11 1009.64 1009.55 1009.25 1008.27 1008.04 1007.83 1008.69 1010.64 1013.17 1015.49 1016.99 1017.95 1018.87 1019.34 1019.33 1019.02 1018.53 1018.25 1017.97 1017.06 1016.27 1015.12 1013.93 1012.64 1011.20 1010.08 1008.94 1008.02 1007.14 1005.56 1003.63 1002.46 1002.72 1003.17 1003.65 1004.04 1004.88 1006.00 1006.97 1007.55 1008.16 1008.99 1009.60 1010.46 1010.94 1011.43 1011.57
1009.44 1009.80 1010.08 1009.97 1009.58 1009.09 1008.44 1008.65 1010.40 1012.27 1015.14 1017.23 1018.62 1019.20 1020.12 1020.50 1020.26 1019.96 1019.61 1019.08 1018.44 1017.69 1016.81 1015.42 1014.09 1012.65 1011.35 1010.30 1009.22 1007.96 1006.56 1004.92 1003.13 1001.83 1001.74 1001.97 1002.98 1003.81 1004.56 1005.60 1006.76 1007.52 1007.89 1008.21 1008.30 1009.41 1010.32 1010.72 1011.07
1010.04 1010.15 1009.64 1009.25 1009.16 1008.70 1007.32 1008.72 1012.69 1015.29 1017.71 1019.04 1019.70 1020.53 1021.21 1021.17 1021.34 1020.82 1020.53 1019.71 1019.01 1018.23 1016.97 1015.62 1014.20 1012.49 1011.38 1010.21 1008.69 1007.57 1006.15 1004.45 1002.90 1002.82 1001.96 1000.78 1002.10 1003.62 1004.57 1005.32 1005.59 1006.85 1007.89 1008.06 1008.09 1008.19 1009.44 1010.00 1010.50
1010.17 1010.02 1008.98 1008.36 1008.40 1007.84 1007.61 1009.51 1014.45 1017.10 1018.74 1019.84 1020.87 1021.44 1022.05 1022.34 1022.13 1021.54 1020.88 1019.99 1019.34 1018.41 1017.15 1015.94 1014.57 1012.74 1011.30 1010.09 1008.76 1007.29 1005.83 1004.58 1004.06 1003.18 1002.83 998.65 1002.72 1004.22 1005.58 1004.56 1004.76 1006.06 1006.68 1007.64 1007.41 1007.75 1008.46 1009.42 1009.77
1009.13 1009.26 1009.30 1008.71 1008.23 1008.23 1009.01 1011.86 1015.96 1018.25 1019.77 1020.80 1021.73 1022.36 1022.97 1023.04 1022.80 1022.26 1021.52 1020.70 1019.86 1018.84 1017.52 1016.30 1015.07 1013.37 1011.67 1010.47 1009.08 1007.60 1005.99 1005.62 1005.12 1003.00 1004.12 1004.44 1005.50 1006.80 1001.87 1001.00 1003.96 1005.15 1006.23 1007.16 1007.15 1007.43 1007.71 1008.62 1009.09
1009.05 1009.22 1009.53 1009.71 1010.03 1010.20 1011.13 1014.55 1016.31 1018.13 1019.96 1021.66 1022.43 1023.09 1023.41 1023.59 1023.34 1022.76 1022.09 1021.30 1020.39 1019.33 1018.02 1016.94 1015.86 1014.41 1012.49 1010.96 1009.60 1008.53 1006.92 1006.12 1006.45 1006.54 1007.05 1008.24 1005.70 1007.44 1008.97 1007.37 1006.20 1007.01 1006.56 1006.92 1007.26 1007.63 1007.39 1008.08 1008.35
1009.52 1009.67 1010.09 1010.52 1010.65 1010.43 1011.07 1014.78 1017.26 1019.21 1021.08 1022.24 1022.91 1023.50 1023.73 1024.05 1023.68 1023.26 1022.58 1021.88 1020.96 1019.94 1018.79 1017.85 1016.74 1014.83 1013.58 1011.73 1010.61 1009.54 1007.69 1007.54 1007.93 1007.82 1007.83 1008.22 1009.33 1008.79 1009.37 1007.85 1008.92 1009.03 1008.96 1008.40 1007.58 1007.54 1007.33 1007.99 1008.05
1009.57 1009.88 1010.49 1011.31 1011.58 1011.92 1013.10 1016.58 1019.03 1020.81 1022.03 1022.80 1023.51 1023.94 1024.27 1024.22 1024.14 1023.77 1023.25 1022.60 1021.78 1020.52 1019.55 1018.87 1016.72 1015.17 1014.26 1012.42 1011.50 1010.09 1008.68 1008.47 1009.07 1009.80 1009.77 1011.28 1009.79 1009.52 1009.71 1010.50 1010.51 1010.91 1010.72 1010.23 1009.47 1009.22 1008.21 1007.95 1007.83
1009.64 1010.28 1011.09 1011.99 1011.92 1012.37 1014.45 1017.82 1020.04 1021.56 1022.43 1023.18 1023.90 1024.21 1024.41 1024.40 1024.47 1024.26 1023.73 1023.13 1022.30 1021.28 1020.62 1019.83 1018.63 1017.30 1014.62 1013.43 1011.59 1010.86 1010.58 1010.60 1010.15 1010.82 1009.89 1011.65 1010.38 1012.32 1012.91 1010.95 1012.84 1012.62 1012.68 1011.77 1011.21 1010.68 1010.05 1009.68 1009.05
Wind_Speed
16 14 11 9 6 8 13 16 6 4 6 14 11 10 9 9 6 6 13 12 6 12 14 14 14 12 13 13 13 15 15 14 13 12 11 10 10 10 10 9 8 7 8 8 7 6 4 6 7
12 19 7 7 8 11 11 15 8 14 13 6 1 4 8 6 16 6 15 16 9 10 14 14 11 12 12 13 13 15 16 14 13 12 12 11 10 9 9 9 9 7 6 7 7 8 6 6 7
13 15 6 5 11 12 14 10 15 13 8 7 6 4 5 7 14 8 15 15 12 1 14 14 12 11 10 12 13 13 15 15 14 13 13 12 12 11 9 9 9 7 6 6 7 7 8 7 7
7 6 6 8 16 18 19 7 5 1 2 8 3 7 5 11 6 15 15 13 10 2 15 18 13 10 10 10 11 11 12 14 14 13 14 13 12 12 10 10 9 8 6 6 7 7 7 8 7
6 6 11 14 15 17 17 12 4 8 9 6 4 7 8 17 14 11 12 14 10 14 13 14 15 11 9 9 10 10 11 13 14 14 13 13 12 11 11 10 9 9 8 7 9 7 7 7 7
8 8 11 13 17 19 17 8 7 5 8 9 7 5 4 14 14 10 11 8 8 9 13 10 10 12 10 10 10 10 10 11 13 14 13 13 12 11 11 10 9 9 9 9 8 7 6 6 7
11 10 15 18 17 18 18 2 3 8 11 8 9 6 4 15 10 7 9 8 4 6 10 10 9 8 7 7 8 8 9 10 12 13 12 11 11 11 11 10 9 8 8 9 8 8 7 6 6
9 10 18 15 15 17 13 4 8 7 9 12 10 5 8 14 9 11 13 10 6 3 3 9 9 8 7 7 7 8 9 9 10 11 11 12 11 10 10 10 9 9 8 8 8 8 8 7 7
8 8 12 17 13 11 17 15 9 14 11 13 7 8 11 13 11 13 11 10 6 5 7 10 6 10 9 9 9 9 9 10 10 9 9 8 7 8 10 9 12 9 8 8 8 9 9 8 6
6 8 15 15 12 14 13 12 14 15 14 15 14 13 19 17 15 15 15 12 8 6 5 11 11 7 11 9 10 9 8 7 7 9 9 7 8 8 9 10 11 11 9 9 9 9 9 8 6
11 13 14 16 11 10 12 14 14 16 16 16 17 17 17 15 14 13 14 13 10 9 7 9 12 11 10 10 8 7 6 6 7 10 10 8 7 7 7 5 6 5 8 5 6 5 5 7 5
8 12 14 11 10 10 10 13 15 15 16 15 15 15 14 11 11 13 13 16 18 16 9 10 12 11 11 8 8 10 9 9 8 9 11 9 6 6 7 6 7 7 7 7 8 6 6 7 6
14 14 15 12 9 10 13 15 17 18 14 11 10 9 11 10 13 13 14 15 16 17 17 12 6 9 9 13 7 8 10 10 10 10 12 9 8 6 7 7 7 8 8 7 7 7 8 6 6
16 13 15 16 16 14 14 10 12 15 9 9 8 9 10 12 14 12 11 11 10 11 15 15 12 5 10 11 10 5 5 7 10 10 12 13 9 7 8 7 7 7 7 7 6 6 7 5 4
10 14 16 18 12 2 4 11 10 7 3 7 10 13 14 13 13 12 12 13 12 10 12 13 14 11 10 12 11 10 5 9 7 6 8 16 13 9 11 9 7 7 6 8 6 6 5 4 4
17 17 15 11 10 10 5 9 9 15 13 14 13 12 12 13 16 24 24 23 24 24 24 12 13 14 8 12 10 11 10 8 8 8 8 8 11 11 8 9 8 7 7 6 6 5 5 5 5
17 12 11 6 12 4 4 12 12 11 12 14 10 18 18 20 23 22 23 23 24 25 25 22 17 18 18 13 14 12 11 9 9 10 11 14 13 10 6 6 8 9 5 5 5 5 5 5 4
11 8 13 15 13 11 12 15 13 12 13 12 18 17 17 19 22 22 25 22 22 23 24 23 22 16 18 13 11 14 10 9 9 9 11 14 12 15 10 7 6 5 7 6 5 6 4 5 5
8 11 14 13 11 12 13 14 15 13 11 17 16 17 17 18 20 21 21 23 22 19 23 25 21 22 17 14 11 11 13 11 13 12 13 14 15 17 14 7 8 8 6 9 7 4 4 3 2
9 11 13 13 10 12 15 14 16 15 15 16 16 16 18 21 21 22 20 21 21 21 20 22 22 20 18 14 13 11 11 13 13 13 13 16 16 16 17 11 12 12 10 5 7 7 4 5 5
12 12 11 12 13 15 19 17 5 19 19 15 17 16 17 19 21 21 21 20 21 20 21 18 22 22 19 20 15 11 13 13 14 16 13 11 14 18 18 18 9 11 10 11 8 10 11 7 5
11 4 5 12 10 9 14 8 10 12 14 16 17 17 18 19 19 20 19 20 19 18 19 19 19 21 18 20 16 15 13 13 16 16 12 12 15 15 18 16 14 11 11 12 11 10 10 8 9
8 5 8 12 12 14 17 12 9 8 11 16 15 18 18 18 19 19 19 18 20 18 18 18 19 18 16 17 17 10 13 13 14 15 18 17 16 16 15 14 13 10 10 12 10 13 12 10 7
8 10 15 15 12 11 18 9 8 5 7 11 14 15 17 19 18 18 18 17 17 17 17 17 20 16 14 16 16 11 10 12 12 4 12 16 10 10 14 16 15 14 9 12 13 11 14 11 10
9 10 6 6 8 11 6 7 6 7 8 11 12 14 15 17 16 16 18 18 18 20 18 17 20 18 14 16 13 11 8 11 11 1 7 13 8 6 11 12 9 7 8 10 11 9 12 12 10
16 9 6 6 7 12 19 6 6 12 11 12 11 12 14 15 14 16 18 19 19 19 20 21 21 20 16 14 14 11 12 9 10 16 12 11 9 6 21 21 5 6 2 6 6 7 7 11 10
6 8 7 9 13 11 4 6 9 10 12 8 12 14 14 14 15 17 18 19 18 18 21 21 20 18 16 14 11 9 11 16 14 14 10 6 16 11 9 11 14 16 4 5 4 4 4 7 10
12 2 3 5 5 7 5 7 5 8 11 10 11 11 14 12 14 15 16 17 18 18 19 20 18 16 16 13 10 8 15 16 15 15 18 15 13 13 10 18 15 14 17 12 3 4 5 8 7
9 9 7 8 10 6 7 4 4 5 6 9 9 9 11 11 12 13 15 15 16 17 19 19 19 16 15 11 10 11 18 19 18 15 17 11 16 17 18 15 17 15 15 16 13 13 9 8 11
8 9 10 6 7 7 6 3 6 4 6 8 9 10 11 11 11 12 14 15 16 17 17 18 19 18 15 10 15 17 19 18 20 18 22 17 21 15 14 18 16 16 16 14 14 13 12 11 14
Wind_Direction
292 265 249 267 249 227 264 260 237 61 104 44 29 8 346 327 308 46 69 42 30 128 139 142 130 137 137 140 144 141 143 143 142 140 138 135 135 134 130 127 123 125 131 128 128 130 123 119 111
297 291 258 277 256 272 261 250 142 65 66 64 336 269 238 249 21 36 27 2 3 120 144 145 135 140 142 143 145 148 146 145 144 144 142 143 144 143 141 139 139 136 136 134 131 124 109 109 115
274 272 276 236 240 260 279 24 58 68 65 36 337 83 336 324 48 21 13 2 346 242 143 134 135 138 143 142 147 149 147 145 145 147 148 150 152 152 149 147 148 143 143 145 135 122 112 106 112
265 224 249 259 267 280 292 101 68 4 356 98 19 297 30 72 53 31 8 8 329 283 129 130 130 133 142 141 141 143 145 146 147 151 154 155 158 156 154 156 156 145 141 145 126 120 113 115 113
243 271 252 254 257 262 274 282 32 319 321 324 353 303 323 78 60 33 35 359 341 62 101 133 133 134 140 142 144 146 150 151 152 155 156 155 159 157 158 161 161 153 143 134 117 123 122 122 120
253 247 266 265 262 253 242 49 25 292 282 287 307 290 54 75 50 14 73 34 2 92 109 124 120 133 151 156 154 153 156 155 156 156 157 156 157 159 162 165 167 159 149 130 128 133 131 133 131
256 278 266 273 286 298 299 137 238 344 346 352 359 324 305 65 46 2 26 92 36 351 114 131 154 153 149 158 155 153 162 163 161 155 156 155 157 164 167 168 168 170 158 145 142 143 143 143 135
260 288 277 271 275 277 299 72 44 342 336 356 339 268 300 15 20 12 5 349 127 144 117 135 148 167 178 178 152 160 168 167 163 156 158 159 159 169 173 170 176 176 166 154 151 151 151 148 147
288 265 265 260 311 343 11 3 20 6 345 322 318 308 315 347 357 358 346 321 331 157 147 145 169 173 185 192 176 171 173 170 159 155 155 153 181 176 173 192 169 176 169 160 157 158 157 148 157
228 261 260 304 8 351 350 347 341 328 313 304 312 317 344 343 346 345 322 305 313 314 204 163 165 199 184 203 172 182 186 186 186 178 174 188 198 176 187 185 165 167 166 164 164 165 163 173 169
241 250 273 306 345 344 323 317 328 319 303 307 321 318 321 330 331 308 319 320 315 321 318 173 177 182 197 206 171 178 188 189 191 187 177 200 205 186 195 163 164 161 166 169 166 162 195 204 216
261 274 280 298 290 294 296 301 291 287 285 299 304 308 302 327 328 327 335 342 336 333 318 317 183 185 181 219 193 183 188 186 187 194 186 186 201 195 185 163 172 172 171 195 178 180 201 219 221
281 270 275 275 295 275 271 276 284 278 280 281 288 328 325 337 324 325 323 316 313 318 322 320 308 203 201 200 241 194 192 181 189 188 190 185 200 197 186 182 177 181 174 194 176 187 195 211 213
297 302 284 281 276 270 267 298 291 274 328 347 345 307 304 306 316 315 304 307 300 298 305 307 310 290 208 213 229 242 193 182 190 186 185 191 191 200 189 196 187 184 179 185 177 197 182 184 166
299 283 279 262 246 332 326 269 268 141 69 282 296 307 308 317 313 315 335 330 319 306 306 301 301 294 225 206 218 227 222 200 196 192 181 188 192 207 191 190 194 190 195 175 178 183 171 183 174
263 259 268 105 163 208 191 290 288 334 324 324 308 292 305 337 8 20 2 355 347 345 337 317 311 302 304 242 209 219 222 203 200 195 197 194 203 202 199 184 191 189 198 185 182 187 179 189 182
232 246 226 214 214 331 241 285 286 310 317 300 330 31 12 3 359 1 355 352 342 336 333 330 330 332 331 343 284 210 228 219 211 188 199 199 200 214 220 199 187 188 194 183 184 192 189 177 178
337 305 313 301 301 315 296 292 307 303 301 38 35 23 9 0 354 351 345 343 339 334 332 334 332 322 325 322 332 258 222 224 220 211 198 189 191 204 218 195 178 181 193 200 180 195 203 186 185
310 294 282 280 291 302 292 293 294 291 71 50 31 19 2 353 350 346 343 336 334 335 329 327 326 329 330 324 316 310 237 219 235 208 208 189 187 190 209 194 181 196 215 196 183 149 182 241 215
274 267 269 272 290 306 293 301 275 97 76 55 33 10 2 351 342 337 338 337 333 330 330 322 319 322 314 314 319 308 300 233 218 220 212 196 176 185 199 209 186 188 209 219 165 175 179 209 205
246 252 280 303 313 284 266 262 283 94 75 46 31 12 9 353 339 338 336 333 328 327 329 323 316 314 310 308 304 314 301 285 221 218 206 197 189 180 191 201 186 177 187 206 193 189 194 192 203
263 42 312 287 287 280 328 289 293 125 63 29 17 10 7 353 345 338 337 333 332 327 325 323 317 308 309 305 302 301 297 282 242 213 199 202 198 179 181 186 196 182 183 200 201 194 200 186 200
254 355 287 281 274 282 272 253 112 65 31 7 5 10 4 355 349 342 342 340 335 334 328 322 317 304 309 314 303 299 288 271 258 218 197 198 195 197 173 170 187 211 181 194 202 191 196 202 202
294 281 265 241 244 254 265 232 109 29 5 356 8 4 5 360 350 350 347 342 339 335 331 331 323 315 318 318 300 293 313 304 268 324 255 185 173 181 178 179 182 200 203 195 206 179 191 201 201
229 264 288 220 214 238 253 289 55 88 36 26 13 358 7 0 354 352 351 351 345 342 340 337 332 324 329 324 317 312 12 26 19 18 35 34 39 57 356 177 168 188 198 216 187 182 185 201 191
206 256 272 307 291 313 322 0 121 112 61 23 24 6 1 1 358 355 355 353 345 345 346 343 337 328 330 337 322 329 42 51 52 49 38 34 17 296 31 341 26 159 217 242 183 196 189 195 206
220 230 268 293 287 266 190 99 160 77 39 30 10 5 3 1 0 358 355 357 348 347 353 346 335 329 334 333 340 343 46 57 50 58 56 354 78 4 2 1 16 348 198 201 202 225 203 210 208
248 237 262 234 268 261 290 142 103 9 3 7 11 4 4 1 4 359 357 355 351 354 357 348 338 341 340 358 352 7 54 56 56 49 47 31 36 60 26 25 18 15 11 350 214 203 225 234 230
189 228 230 262 256 274 291 89 32 34 19 17 13 11 360 6 5 2 358 357 354 358 360 349 350 344 341 2 25 28 50 55 56 56 55 40 57 30 37 35 29 23 16 11 8 5 348 264 247
209 233 247 231 259 281 294 106 86 101 49 24 20 11 7 15 12 9 359 357 3 4 356 353 351 351 348 357 33 46 49 56 60 46 53 32 49 45 29 52 28 21 16 14 13 3 357 340 346